Track EUROBIRD 4A(EUTELSAT W1) now! EUROBIRD 4A(EUTELSAT W1) is classified as:
1 26487U 00052A 26251.45343716 -.00000046 00000-0 00000-0 0 9994 2 26487 11.5098 45.2701 0007203 272.4186 103.5151 0.98179190 94007